Year,Month,Day,Hour,Minute,Value (Times are PST for temperature in C)
2007,05,24,00,00,11.60
2007,05,24,00,01,11.50
2007,05,24,00,02,11.50
2007,05,24,00,03,11.40
2007,05,24,00,04,11.40
2007,05,24,00,05,11.30
2007,05,24,00,06,11.30
2007,05,24,00,07,11.30
2007,05,24,00,08,11.20
2007,05,24,00,09,11.20
2007,05,24,00,10,11.20
2007,05,24,00,11,11.20
2007,05,24,00,12,11.20
2007,05,24,00,13,11.10
2007,05,24,00,14,11.10
2007,05,24,00,15,11.10
2007,05,24,00,16,11.00
2007,05,24,00,17,11.00
2007,05,24,00,18,10.90
2007,05,24,00,19,10.90
2007,05,24,00,20,10.90
2007,05,24,00,21,10.90
2007,05,24,00,22,10.80
2007,05,24,00,23,10.80
2007,05,24,00,24,10.80
2007,05,24,00,25,10.80
2007,05,24,00,26,10.80
2007,05,24,00,27,10.80
2007,05,24,00,28,10.80
2007,05,24,00,29,10.80
2007,05,24,00,30,10.80
2007,05,24,00,31,10.80
2007,05,24,00,32,10.80
2007,05,24,00,33,10.70
2007,05,24,00,34,10.70
2007,05,24,00,35,10.70
2007,05,24,00,36,10.70
2007,05,24,00,37,10.70
2007,05,24,00,38,10.70
2007,05,24,00,39,10.70
2007,05,24,00,40,10.70
2007,05,24,00,41,10.70
2007,05,24,00,42,10.70
2007,05,24,00,43,10.70
2007,05,24,00,44,10.70
2007,05,24,00,45,10.70
2007,05,24,00,46,10.70
2007,05,24,00,47,10.70
2007,05,24,00,48,10.70
2007,05,24,00,49,10.70
2007,05,24,00,50,10.70
2007,05,24,00,51,10.70
2007,05,24,00,52,10.70
2007,05,24,00,53,10.60
2007,05,24,00,54,10.60
2007,05,24,00,55,10.60
2007,05,24,00,56,10.60
2007,05,24,00,57,10.60
2007,05,24,00,58,10.60
2007,05,24,00,59,10.60
2007,05,24,01,00,10.50
2007,05,24,01,01,10.50
2007,05,24,01,02,10.50
2007,05,24,01,03,10.40
2007,05,24,01,04,10.40
2007,05,24,01,05,10.40
2007,05,24,01,06,10.40
2007,05,24,01,07,10.40
2007,05,24,01,08,10.40
2007,05,24,01,09,10.40
2007,05,24,01,10,10.40
2007,05,24,01,11,10.40
2007,05,24,01,12,10.40
2007,05,24,01,13,10.50
2007,05,24,01,14,10.50
2007,05,24,01,15,10.50
2007,05,24,01,16,10.50
2007,05,24,01,17,10.50
2007,05,24,01,18,10.40
2007,05,24,01,19,10.40
2007,05,24,01,20,10.40
2007,05,24,01,21,10.40
2007,05,24,01,22,10.40
2007,05,24,01,23,10.40
2007,05,24,01,24,10.40
2007,05,24,01,25,10.40
2007,05,24,01,26,10.30
2007,05,24,01,27,10.30
2007,05,24,01,28,10.30
2007,05,24,01,29,10.30
2007,05,24,01,30,10.30
2007,05,24,01,31,10.20
2007,05,24,01,32,10.20
2007,05,24,01,33,10.20
2007,05,24,01,34,10.20
2007,05,24,01,35,10.20
2007,05,24,01,36,10.20
2007,05,24,01,37,10.10
2007,05,24,01,38,10.10
2007,05,24,01,39,10.10
2007,05,24,01,40,10.10
2007,05,24,01,41,10.10
2007,05,24,01,42,10.10
2007,05,24,01,43,10.10
2007,05,24,01,44,10.10
2007,05,24,01,45,10.10
2007,05,24,01,46,10.10
2007,05,24,01,47,10.00
2007,05,24,01,48,10.00
2007,05,24,01,49,10.10
2007,05,24,01,50,10.10
2007,05,24,01,51,10.10
2007,05,24,01,52,10.00
2007,05,24,01,53,10.00
2007,05,24,01,54,10.00
2007,05,24,01,55,10.00
2007,05,24,01,56,10.00
2007,05,24,01,57,9.90
2007,05,24,01,58,9.90
2007,05,24,01,59,9.90
2007,05,24,02,00,9.90
2007,05,24,02,01,9.80
2007,05,24,02,02,9.80
2007,05,24,02,03,9.80
2007,05,24,02,04,9.80
2007,05,24,02,05,9.80
2007,05,24,02,06,9.80
2007,05,24,02,07,9.70
2007,05,24,02,08,9.70
2007,05,24,02,09,9.70
2007,05,24,02,10,9.70
2007,05,24,02,11,9.70
2007,05,24,02,12,9.70
2007,05,24,02,13,9.70
2007,05,24,02,14,9.60
2007,05,24,02,15,9.60
2007,05,24,02,16,9.60
2007,05,24,02,17,9.60
2007,05,24,02,18,9.60
2007,05,24,02,19,9.50
2007,05,24,02,20,9.50
2007,05,24,02,21,9.40
2007,05,24,02,22,9.40
2007,05,24,02,23,9.40
2007,05,24,02,24,9.30
2007,05,24,02,25,9.30
2007,05,24,02,26,9.30
2007,05,24,02,27,9.30
2007,05,24,02,28,9.30
2007,05,24,02,29,9.20
2007,05,24,02,30,9.20
2007,05,24,02,31,9.20
2007,05,24,02,32,9.20
2007,05,24,02,33,9.20
2007,05,24,02,34,9.20
2007,05,24,02,35,9.20
2007,05,24,02,36,9.20
2007,05,24,02,37,9.20
2007,05,24,02,38,9.20
2007,05,24,02,39,9.30
2007,05,24,02,40,9.30
2007,05,24,02,41,9.30
2007,05,24,02,42,9.30
2007,05,24,02,43,9.30
2007,05,24,02,44,9.30
2007,05,24,02,45,9.30
2007,05,24,02,46,9.30
2007,05,24,02,47,9.30
2007,05,24,02,48,9.30
2007,05,24,02,49,9.30
2007,05,24,02,50,9.40
2007,05,24,02,51,9.40
2007,05,24,02,52,9.40
2007,05,24,02,53,9.40
2007,05,24,02,54,9.40
2007,05,24,02,55,9.30
2007,05,24,02,56,9.30
2007,05,24,02,57,9.30
2007,05,24,02,58,9.30
2007,05,24,02,59,9.30
2007,05,24,03,00,9.30
2007,05,24,03,01,9.30
2007,05,24,03,02,9.20
2007,05,24,03,03,9.20
2007,05,24,03,04,9.20
2007,05,24,03,05,9.20
2007,05,24,03,06,9.20
2007,05,24,03,07,9.20
2007,05,24,03,08,9.20
2007,05,24,03,09,9.10
2007,05,24,03,10,9.10
2007,05,24,03,11,9.10
2007,05,24,03,12,9.20
2007,05,24,03,13,9.20
2007,05,24,03,14,9.20
2007,05,24,03,15,9.20
2007,05,24,03,16,9.10
2007,05,24,03,17,9.10
2007,05,24,03,18,9.10
2007,05,24,03,19,9.10
2007,05,24,03,20,9.10
2007,05,24,03,21,9.00
2007,05,24,03,22,9.00
2007,05,24,03,23,9.00
2007,05,24,03,24,8.90
2007,05,24,03,25,8.90
2007,05,24,03,26,8.90
2007,05,24,03,27,8.80
2007,05,24,03,28,8.80
2007,05,24,03,29,8.80
2007,05,24,03,30,8.70
2007,05,24,03,31,8.70
2007,05,24,03,32,8.70
2007,05,24,03,33,8.70
2007,05,24,03,34,8.70
2007,05,24,03,35,8.70
2007,05,24,03,36,8.70
2007,05,24,03,37,8.70
2007,05,24,03,38,8.70
2007,05,24,03,39,8.70
2007,05,24,03,40,8.70
2007,05,24,03,41,8.60
2007,05,24,03,42,8.60
2007,05,24,03,43,8.60
2007,05,24,03,44,8.60
2007,05,24,03,45,8.60
2007,05,24,03,46,8.60
2007,05,24,03,47,8.60
2007,05,24,03,48,8.60
2007,05,24,03,49,8.60
2007,05,24,03,50,8.60
2007,05,24,03,51,8.60
2007,05,24,03,52,8.50
2007,05,24,03,53,8.50
2007,05,24,03,54,8.50
2007,05,24,03,55,8.40
2007,05,24,03,56,8.40
2007,05,24,03,57,8.40
2007,05,24,03,58,8.40
2007,05,24,03,59,8.40
2007,05,24,04,00,8.30
2007,05,24,04,01,8.30
2007,05,24,04,02,8.30
2007,05,24,04,03,8.30
2007,05,24,04,04,8.30
2007,05,24,04,05,8.30
2007,05,24,04,06,8.30
2007,05,24,04,07,8.30
2007,05,24,04,08,8.40
2007,05,24,04,09,8.40
2007,05,24,04,10,8.50
2007,05,24,04,11,8.50
2007,05,24,04,12,8.60
2007,05,24,04,13,8.60
2007,05,24,04,14,8.60
2007,05,24,04,15,8.60
2007,05,24,04,16,8.60
2007,05,24,04,17,8.60
2007,05,24,04,18,8.60
2007,05,24,04,19,8.60
2007,05,24,04,20,8.60
2007,05,24,04,21,8.60
2007,05,24,04,22,8.60
2007,05,24,04,23,8.60
2007,05,24,04,24,8.60
2007,05,24,04,25,8.60
2007,05,24,04,26,8.60
2007,05,24,04,27,8.60
2007,05,24,04,28,8.60
2007,05,24,04,29,8.60
2007,05,24,04,30,8.60
2007,05,24,04,31,8.60
2007,05,24,04,32,8.60
2007,05,24,04,33,8.60
2007,05,24,04,34,8.60
2007,05,24,04,35,8.60
2007,05,24,04,36,8.60
2007,05,24,04,37,8.60
2007,05,24,04,38,8.60
2007,05,24,04,39,8.50
2007,05,24,04,40,8.50
2007,05,24,04,41,8.50
2007,05,24,04,42,8.40
2007,05,24,04,43,8.40
2007,05,24,04,44,8.40
2007,05,24,04,45,8.40
2007,05,24,04,46,8.40
2007,05,24,04,47,8.40
2007,05,24,04,48,8.40
2007,05,24,04,49,8.50
2007,05,24,04,50,8.50
2007,05,24,04,51,8.50
2007,05,24,04,52,8.40
2007,05,24,04,53,8.40
2007,05,24,04,54,8.40
2007,05,24,04,55,8.40
2007,05,24,04,56,8.40
2007,05,24,04,57,8.40
2007,05,24,04,58,8.40
2007,05,24,04,59,8.40
2007,05,24,05,00,8.40
2007,05,24,05,01,8.50
2007,05,24,05,02,8.50
2007,05,24,05,03,8.50
2007,05,24,05,04,8.50
2007,05,24,05,05,8.50
2007,05,24,05,06,8.50
2007,05,24,05,07,8.60
2007,05,24,05,08,8.60
2007,05,24,05,09,8.50
2007,05,24,05,10,8.60
2007,05,24,05,11,8.60
2007,05,24,05,12,8.50
2007,05,24,05,13,8.50
2007,05,24,05,14,8.50
2007,05,24,05,15,8.50
2007,05,24,05,16,8.50
2007,05,24,05,17,8.50
2007,05,24,05,18,8.50
2007,05,24,05,19,8.40
2007,05,24,05,20,8.40
2007,05,24,05,21,8.40
2007,05,24,05,22,8.40
2007,05,24,05,23,8.30
2007,05,24,05,24,8.30
2007,05,24,05,25,8.30
2007,05,24,05,26,8.30
2007,05,24,05,27,8.30
2007,05,24,05,28,8.30
2007,05,24,05,29,8.30
2007,05,24,05,30,8.30
2007,05,24,05,31,8.30
2007,05,24,05,32,8.20
2007,05,24,05,33,8.20
2007,05,24,05,34,8.20
2007,05,24,05,35,8.20
2007,05,24,05,36,8.20
2007,05,24,05,37,8.20
2007,05,24,05,38,8.20
2007,05,24,05,39,8.20
2007,05,24,05,40,8.20
2007,05,24,05,41,8.20
2007,05,24,05,42,8.20
2007,05,24,05,43,8.20
2007,05,24,05,44,8.30
2007,05,24,05,45,8.30
2007,05,24,05,46,8.30
2007,05,24,05,47,8.30
2007,05,24,05,48,8.30
2007,05,24,05,49,8.30
2007,05,24,05,50,8.30
2007,05,24,05,51,8.40
2007,05,24,05,52,8.40
2007,05,24,05,53,8.40
2007,05,24,05,54,8.40
2007,05,24,05,55,8.50
2007,05,24,05,56,8.50
2007,05,24,05,57,8.60
2007,05,24,05,58,8.60
2007,05,24,05,59,8.60
2007,05,24,06,00,8.60
2007,05,24,06,01,8.60
2007,05,24,06,02,8.70
2007,05,24,06,03,8.70
2007,05,24,06,04,8.70
2007,05,24,06,05,8.80
2007,05,24,06,06,8.80
2007,05,24,06,07,8.80
2007,05,24,06,08,8.80
2007,05,24,06,09,8.90
2007,05,24,06,10,8.90
2007,05,24,06,11,9.00
2007,05,24,06,12,9.00
2007,05,24,06,13,9.10
2007,05,24,06,14,9.10
2007,05,24,06,15,9.20
2007,05,24,06,16,9.20
2007,05,24,06,17,9.30
2007,05,24,06,18,9.30
2007,05,24,06,19,9.30
2007,05,24,06,20,9.40
2007,05,24,06,21,9.40
2007,05,24,06,22,9.50
2007,05,24,06,23,9.50
2007,05,24,06,24,9.60
2007,05,24,06,25,9.60
2007,05,24,06,26,9.60
2007,05,24,06,27,9.60
2007,05,24,06,28,9.60
2007,05,24,06,29,9.70
2007,05,24,06,30,9.70
2007,05,24,06,31,9.70
2007,05,24,06,32,9.70
2007,05,24,06,33,9.80
2007,05,24,06,34,9.80
2007,05,24,06,35,9.80
2007,05,24,06,36,9.80
2007,05,24,06,37,9.80
2007,05,24,06,38,9.80
2007,05,24,06,39,9.80
2007,05,24,06,40,9.90
2007,05,24,06,41,9.90
2007,05,24,06,42,10.00
2007,05,24,06,43,10.10
2007,05,24,06,44,10.20
2007,05,24,06,45,10.20
2007,05,24,06,46,10.30
2007,05,24,06,47,10.30
2007,05,24,06,48,10.40
2007,05,24,06,49,10.40
2007,05,24,06,50,10.50
2007,05,24,06,51,10.50
2007,05,24,06,52,10.60
2007,05,24,06,53,10.60
2007,05,24,06,54,10.70
2007,05,24,06,55,10.70
2007,05,24,06,56,10.80
2007,05,24,06,57,10.80
2007,05,24,06,58,10.90
2007,05,24,06,59,11.00
2007,05,24,07,00,11.10
2007,05,24,07,01,11.10
2007,05,24,07,02,11.20
2007,05,24,07,03,11.30
2007,05,24,07,04,11.30
2007,05,24,07,05,11.30
2007,05,24,07,06,11.40
2007,05,24,07,07,11.50
2007,05,24,07,08,11.60
2007,05,24,07,09,11.70
2007,05,24,07,10,11.70
2007,05,24,07,11,11.70
2007,05,24,07,12,11.80
2007,05,24,07,13,11.80
2007,05,24,07,14,11.90
2007,05,24,07,15,12.00
2007,05,24,07,16,12.10
2007,05,24,07,17,12.10
2007,05,24,07,18,12.20
2007,05,24,07,19,12.20
2007,05,24,07,20,12.30
2007,05,24,07,21,12.30
2007,05,24,07,22,12.30
2007,05,24,07,23,12.30
2007,05,24,07,24,12.30
2007,05,24,07,25,12.30
2007,05,24,07,26,12.30
2007,05,24,07,27,12.40
2007,05,24,07,28,12.40
2007,05,24,07,29,12.40
2007,05,24,07,30,12.40
2007,05,24,07,31,12.50
2007,05,24,07,32,12.50
2007,05,24,07,33,12.60
2007,05,24,07,34,12.60
2007,05,24,07,35,12.70
2007,05,24,07,36,12.70
2007,05,24,07,37,12.70
2007,05,24,07,38,12.70
2007,05,24,07,39,12.80
2007,05,24,07,40,12.80
2007,05,24,07,41,12.90
2007,05,24,07,42,12.90
2007,05,24,07,43,13.00
2007,05,24,07,44,13.10
2007,05,24,07,45,13.10
2007,05,24,07,46,13.20
2007,05,24,07,47,13.30
2007,05,24,07,48,13.40
2007,05,24,07,49,13.40
2007,05,24,07,50,13.50
2007,05,24,07,51,13.60
2007,05,24,07,52,13.70
2007,05,24,07,53,13.70
2007,05,24,07,54,13.80
2007,05,24,07,55,13.90
2007,05,24,07,56,14.00
2007,05,24,07,57,14.10
2007,05,24,07,58,14.10
2007,05,24,07,59,14.10
2007,05,24,08,00,14.20
2007,05,24,08,01,14.20
2007,05,24,08,02,14.20
2007,05,24,08,03,14.20
2007,05,24,08,04,14.20
2007,05,24,08,05,14.20
2007,05,24,08,06,14.20
2007,05,24,08,07,14.20
2007,05,24,08,08,14.20
2007,05,24,08,09,14.20
2007,05,24,08,10,14.10
2007,05,24,08,11,14.10
2007,05,24,08,12,14.10
2007,05,24,08,13,14.10
2007,05,24,08,14,14.10
2007,05,24,08,15,14.20
2007,05,24,08,16,14.20
2007,05,24,08,17,14.30
2007,05,24,08,18,14.30
2007,05,24,08,19,14.40
2007,05,24,08,20,14.50
2007,05,24,08,21,14.50
2007,05,24,08,22,14.60
2007,05,24,08,23,14.70
2007,05,24,08,24,14.70
2007,05,24,08,25,14.80
2007,05,24,08,26,14.70
2007,05,24,08,27,14.70
2007,05,24,08,28,14.80
2007,05,24,08,29,14.80
2007,05,24,08,30,14.80
2007,05,24,08,31,14.80
2007,05,24,08,32,14.90
2007,05,24,08,33,14.90
2007,05,24,08,34,15.00
2007,05,24,08,35,15.00
2007,05,24,08,36,15.00
2007,05,24,08,37,15.00
2007,05,24,08,38,15.00
2007,05,24,08,39,15.00
2007,05,24,08,40,15.00
2007,05,24,08,41,15.00
2007,05,24,08,42,15.00
2007,05,24,08,43,15.10
2007,05,24,08,44,15.20
2007,05,24,08,45,15.30
2007,05,24,08,46,15.40
2007,05,24,08,47,15.40
2007,05,24,08,48,15.40
2007,05,24,08,49,15.40
2007,05,24,08,50,15.50
2007,05,24,08,51,15.50
2007,05,24,08,52,15.40
2007,05,24,08,53,15.40
2007,05,24,08,54,15.30
2007,05,24,08,55,15.30
2007,05,24,08,56,15.30
2007,05,24,08,57,15.30
2007,05,24,08,58,15.30
2007,05,24,08,59,15.30
2007,05,24,09,00,15.30
2007,05,24,09,01,15.30
2007,05,24,09,02,15.30
2007,05,24,09,03,15.30
2007,05,24,09,04,15.30
2007,05,24,09,05,15.30
2007,05,24,09,06,15.30
2007,05,24,09,07,15.10
2007,05,24,09,08,15.00
2007,05,24,09,09,15.00
2007,05,24,09,10,15.00
2007,05,24,09,11,15.10
2007,05,24,09,12,15.10
2007,05,24,09,13,15.10
2007,05,24,09,14,15.10
2007,05,24,09,15,15.20
2007,05,24,09,16,15.20
2007,05,24,09,17,15.20
2007,05,24,09,18,15.20
2007,05,24,09,19,15.20
2007,05,24,09,20,15.10
2007,05,24,09,21,15.10
2007,05,24,09,22,15.10
2007,05,24,09,23,15.20
2007,05,24,09,24,15.30
2007,05,24,09,25,15.30
2007,05,24,09,26,15.30
2007,05,24,09,27,15.30
2007,05,24,09,28,15.30
2007,05,24,09,29,15.30
2007,05,24,09,30,15.30
2007,05,24,09,31,15.30
2007,05,24,09,32,15.20
2007,05,24,09,33,15.00
2007,05,24,09,34,15.00
2007,05,24,09,35,15.00
2007,05,24,09,36,15.00
2007,05,24,09,37,15.00
2007,05,24,09,38,15.20
2007,05,24,09,39,15.20
2007,05,24,09,40,15.30
2007,05,24,09,41,15.40
2007,05,24,09,42,15.40
2007,05,24,09,43,15.40
2007,05,24,09,44,15.40
2007,05,24,09,45,15.30
2007,05,24,09,46,15.30
2007,05,24,09,47,15.40
2007,05,24,09,48,15.50
2007,05,24,09,49,15.50
2007,05,24,09,50,15.60
2007,05,24,09,51,15.80
2007,05,24,09,52,15.90
2007,05,24,09,53,16.00
2007,05,24,09,54,16.10
2007,05,24,09,55,16.10
2007,05,24,09,56,16.00
2007,05,24,09,57,15.80
2007,05,24,09,58,15.70
2007,05,24,09,59,15.70
2007,05,24,10,00,15.80
2007,05,24,10,01,15.70
2007,05,24,10,02,15.70
2007,05,24,10,03,15.70
2007,05,24,10,04,15.70
2007,05,24,10,05,15.80
2007,05,24,10,06,15.80
2007,05,24,10,07,15.80
2007,05,24,10,08,15.90
2007,05,24,10,09,16.00
2007,05,24,10,10,16.00
2007,05,24,10,11,16.00
2007,05,24,10,12,16.10
2007,05,24,10,13,16.20
2007,05,24,10,14,16.10
2007,05,24,10,15,16.00
2007,05,24,10,16,16.00
2007,05,24,10,17,16.10
2007,05,24,10,18,16.00
2007,05,24,10,19,15.90
2007,05,24,10,20,15.90
2007,05,24,10,21,15.90
2007,05,24,10,22,16.00
2007,05,24,10,23,16.10
2007,05,24,10,24,16.20
2007,05,24,10,25,16.20
2007,05,24,10,26,16.20
2007,05,24,10,27,16.30
2007,05,24,10,28,16.30
2007,05,24,10,29,16.30
2007,05,24,10,30,16.40
2007,05,24,10,31,16.50
2007,05,24,10,32,16.50
2007,05,24,10,33,16.50
2007,05,24,10,34,16.40
2007,05,24,10,35,16.30
2007,05,24,10,36,16.20
2007,05,24,10,37,16.10
2007,05,24,10,38,16.10
2007,05,24,10,39,16.00
2007,05,24,10,40,15.90
2007,05,24,10,41,15.80
2007,05,24,10,42,15.80
2007,05,24,10,43,15.80
2007,05,24,10,44,15.90
2007,05,24,10,45,16.00
2007,05,24,10,46,15.90
2007,05,24,10,47,15.90
2007,05,24,10,48,15.80
2007,05,24,10,49,15.80
2007,05,24,10,50,15.80
2007,05,24,10,51,15.80
2007,05,24,10,52,15.80
2007,05,24,10,53,15.80
2007,05,24,10,54,15.80
2007,05,24,10,55,15.90
2007,05,24,10,56,16.00
2007,05,24,10,57,16.10
2007,05,24,10,58,16.10
2007,05,24,10,59,16.10
2007,05,24,11,00,16.10
2007,05,24,11,01,16.00
2007,05,24,11,02,15.80
2007,05,24,11,03,15.70
2007,05,24,11,04,15.50
2007,05,24,11,05,15.30
2007,05,24,11,06,15.20
2007,05,24,11,07,15.10
2007,05,24,11,08,15.00
2007,05,24,11,09,15.00
2007,05,24,11,10,15.00
2007,05,24,11,11,15.00
2007,05,24,11,12,14.90
2007,05,24,11,13,14.80
2007,05,24,11,14,14.80
2007,05,24,11,15,14.80
2007,05,24,11,16,14.80
2007,05,24,11,17,14.80
2007,05,24,11,18,14.90
2007,05,24,11,19,14.90
2007,05,24,11,20,15.00
2007,05,24,11,21,15.00
2007,05,24,11,22,15.00
2007,05,24,11,23,15.00
2007,05,24,11,24,15.00
2007,05,24,11,25,15.20
2007,05,24,11,26,15.30
2007,05,24,11,27,15.30
2007,05,24,11,28,15.40
2007,05,24,11,29,15.50
2007,05,24,11,30,15.50
2007,05,24,11,31,15.60
2007,05,24,11,32,15.70
2007,05,24,11,33,15.70
2007,05,24,11,34,15.60
2007,05,24,11,35,15.40
2007,05,24,11,36,15.20
2007,05,24,11,37,15.00
2007,05,24,11,38,15.00
2007,05,24,11,39,15.00
2007,05,24,11,40,14.90
2007,05,24,11,41,14.80
2007,05,24,11,42,14.70
2007,05,24,11,43,14.70
2007,05,24,11,44,14.70
2007,05,24,11,45,14.70
2007,05,24,11,46,14.80
2007,05,24,11,47,14.70
2007,05,24,11,48,14.70
2007,05,24,11,49,14.80
2007,05,24,11,50,14.90
2007,05,24,11,51,15.00
2007,05,24,11,52,15.00
2007,05,24,11,53,15.00
2007,05,24,11,54,15.00
2007,05,24,11,55,15.00
2007,05,24,11,56,15.00
2007,05,24,11,57,15.00
2007,05,24,11,58,15.00
2007,05,24,11,59,15.00
2007,05,24,12,00,15.20
2007,05,24,12,01,15.20
2007,05,24,12,02,15.10
2007,05,24,12,03,15.00
2007,05,24,12,04,15.00
2007,05,24,12,05,15.00
2007,05,24,12,06,14.90
2007,05,24,12,07,14.80
2007,05,24,12,08,14.80
2007,05,24,12,09,14.80
2007,05,24,12,10,14.70
2007,05,24,12,11,14.70
2007,05,24,12,12,14.70
2007,05,24,12,13,14.70
2007,05,24,12,14,14.70
2007,05,24,12,15,14.70
2007,05,24,12,16,14.70
2007,05,24,12,17,14.70
2007,05,24,12,18,14.70
2007,05,24,12,19,14.80
2007,05,24,12,20,14.90
2007,05,24,12,21,15.00
2007,05,24,12,22,15.00
2007,05,24,12,23,15.10
2007,05,24,12,24,15.30
2007,05,24,12,25,15.30
2007,05,24,12,26,15.40
2007,05,24,12,27,15.40
2007,05,24,12,28,15.50
2007,05,24,12,29,15.60
2007,05,24,12,30,15.80
2007,05,24,12,31,15.90
2007,05,24,12,32,16.00
2007,05,24,12,33,16.00
2007,05,24,12,34,16.00
2007,05,24,12,35,16.10
2007,05,24,12,36,16.10
2007,05,24,12,37,16.30
2007,05,24,12,38,16.30
2007,05,24,12,39,16.40
2007,05,24,12,40,16.50
2007,05,24,12,41,16.40
2007,05,24,12,42,16.30
2007,05,24,12,43,16.20
2007,05,24,12,44,16.10
2007,05,24,12,45,16.10
2007,05,24,12,46,16.10
2007,05,24,12,47,16.10
2007,05,24,12,48,16.20
2007,05,24,12,49,16.30
2007,05,24,12,50,16.40
2007,05,24,12,51,16.50
2007,05,24,12,52,16.70
2007,05,24,12,53,16.90
2007,05,24,12,54,16.90
2007,05,24,12,55,16.80
2007,05,24,12,56,16.80
2007,05,24,12,57,16.60
2007,05,24,12,58,16.50
2007,05,24,12,59,16.50
2007,05,24,13,00,16.40
2007,05,24,13,01,16.40
2007,05,24,13,02,16.50
2007,05,24,13,03,16.70
2007,05,24,13,04,16.80
2007,05,24,13,05,16.90
2007,05,24,13,06,17.00
2007,05,24,13,07,17.00
2007,05,24,13,08,17.00
2007,05,24,13,09,16.90
2007,05,24,13,10,16.80
2007,05,24,13,11,16.80
2007,05,24,13,12,16.70
2007,05,24,13,13,16.70
2007,05,24,13,14,16.70
2007,05,24,13,15,16.70
2007,05,24,13,16,16.80
2007,05,24,13,17,16.90
2007,05,24,13,18,17.00
2007,05,24,13,19,17.10
2007,05,24,13,20,17.20
2007,05,24,13,21,17.30
2007,05,24,13,22,17.30
2007,05,24,13,23,17.40
2007,05,24,13,24,17.40
2007,05,24,13,25,17.50
2007,05,24,13,26,17.50
2007,05,24,13,27,17.60
2007,05,24,13,28,17.70
2007,05,24,13,29,17.60
2007,05,24,13,30,17.50
2007,05,24,13,31,17.40
2007,05,24,13,32,17.40
2007,05,24,13,33,17.40
2007,05,24,13,34,17.50
2007,05,24,13,35,17.60
2007,05,24,13,36,17.60
2007,05,24,13,37,17.70
2007,05,24,13,38,17.80
2007,05,24,13,39,17.80
2007,05,24,13,40,17.70
2007,05,24,13,41,17.70
2007,05,24,13,42,17.60
2007,05,24,13,43,17.70
2007,05,24,13,44,17.80
2007,05,24,13,45,17.90
2007,05,24,13,46,17.90
2007,05,24,13,47,18.00
2007,05,24,13,48,18.10
2007,05,24,13,49,18.10
2007,05,24,13,50,18.10
2007,05,24,13,51,18.10
2007,05,24,13,52,18.10
2007,05,24,13,53,18.20
2007,05,24,13,54,18.00
2007,05,24,13,55,18.00
2007,05,24,13,56,18.00
2007,05,24,13,57,18.10
2007,05,24,13,58,18.10
2007,05,24,13,59,18.00
2007,05,24,14,00,17.80
2007,05,24,14,01,17.80
2007,05,24,14,02,17.70
2007,05,24,14,03,17.70
2007,05,24,14,04,17.70
2007,05,24,14,05,17.70
2007,05,24,14,06,17.80
2007,05,24,14,07,17.90
2007,05,24,14,08,17.90
2007,05,24,14,09,18.00
2007,05,24,14,10,18.10
2007,05,24,14,11,18.10
2007,05,24,14,12,18.20
2007,05,24,14,13,18.40
2007,05,24,14,14,18.40
2007,05,24,14,15,18.30
2007,05,24,14,16,18.30
2007,05,24,14,17,18.30
2007,05,24,14,18,18.30
2007,05,24,14,19,18.40
2007,05,24,14,20,18.60
2007,05,24,14,21,18.70
2007,05,24,14,22,18.80
2007,05,24,14,23,18.80
2007,05,24,14,24,18.90
2007,05,24,14,25,18.90
2007,05,24,14,26,18.90
2007,05,24,14,27,19.00
2007,05,24,14,28,19.00
2007,05,24,14,29,19.00
2007,05,24,14,30,19.00
2007,05,24,14,31,19.10
2007,05,24,14,32,19.30
2007,05,24,14,33,19.50
2007,05,24,14,34,19.70
2007,05,24,14,35,19.80
2007,05,24,14,36,19.80
2007,05,24,14,37,19.70
2007,05,24,14,38,19.70
2007,05,24,14,39,19.60
2007,05,24,14,40,19.50
2007,05,24,14,41,19.40
2007,05,24,14,42,19.50
2007,05,24,14,43,19.50
2007,05,24,14,44,19.50
2007,05,24,14,45,19.50
2007,05,24,14,46,19.60
2007,05,24,14,47,19.70
2007,05,24,14,48,19.80
2007,05,24,14,49,19.90
2007,05,24,14,50,20.00
2007,05,24,14,51,20.20
2007,05,24,14,52,20.40
2007,05,24,14,53,20.50
2007,05,24,14,54,20.50
2007,05,24,14,55,20.60
2007,05,24,14,56,20.50
2007,05,24,14,57,20.40
2007,05,24,14,58,20.30
2007,05,24,14,59,20.20
2007,05,24,15,00,19.80
2007,05,24,15,01,19.30
2007,05,24,15,02,18.60
2007,05,24,15,03,18.20
2007,05,24,15,04,18.00
2007,05,24,15,05,17.90
2007,05,24,15,06,17.90
2007,05,24,15,07,17.70
2007,05,24,15,08,17.60
2007,05,24,15,09,17.40
2007,05,24,15,10,17.10
2007,05,24,15,11,16.80
2007,05,24,15,12,16.50
2007,05,24,15,13,16.40
2007,05,24,15,14,16.30
2007,05,24,15,15,16.30
2007,05,24,15,16,16.30
2007,05,24,15,17,16.20
2007,05,24,15,18,16.20
2007,05,24,15,19,16.20
2007,05,24,15,20,16.20
2007,05,24,15,21,16.20
2007,05,24,15,22,16.20
2007,05,24,15,23,16.20
2007,05,24,15,24,16.20
2007,05,24,15,25,16.30
2007,05,24,15,26,16.40
2007,05,24,15,27,16.50
2007,05,24,15,28,16.60
2007,05,24,15,29,16.60
2007,05,24,15,30,16.60
2007,05,24,15,31,16.50
2007,05,24,15,32,16.60
2007,05,24,15,33,16.60
2007,05,24,15,34,16.60
2007,05,24,15,35,16.50
2007,05,24,15,36,16.50
2007,05,24,15,37,16.40
2007,05,24,15,38,16.50
2007,05,24,15,39,16.50
2007,05,24,15,40,16.60
2007,05,24,15,41,16.70
2007,05,24,15,42,16.80
2007,05,24,15,43,16.90
2007,05,24,15,44,16.90
2007,05,24,15,45,16.90
2007,05,24,15,46,16.90
2007,05,24,15,47,17.00
2007,05,24,15,48,17.00
2007,05,24,15,49,16.90
2007,05,24,15,50,16.80
2007,05,24,15,51,16.90
2007,05,24,15,52,17.00
2007,05,24,15,53,17.10
2007,05,24,15,54,17.20
2007,05,24,15,55,17.40
2007,05,24,15,56,17.40
2007,05,24,15,57,17.40
2007,05,24,15,58,17.50
2007,05,24,15,59,17.50
2007,05,24,16,00,17.60
2007,05,24,16,01,17.70
2007,05,24,16,02,17.50
2007,05,24,16,03,17.40
2007,05,24,16,04,17.30
2007,05,24,16,05,17.20
2007,05,24,16,06,17.10
2007,05,24,16,07,17.00
2007,05,24,16,08,16.90
2007,05,24,16,09,16.80
2007,05,24,16,10,16.80
2007,05,24,16,11,16.80
2007,05,24,16,12,16.90
2007,05,24,16,13,16.80
2007,05,24,16,14,16.80
2007,05,24,16,15,16.70
2007,05,24,16,16,16.60
2007,05,24,16,17,16.60
2007,05,24,16,18,16.60
2007,05,24,16,19,16.60
2007,05,24,16,20,16.60
2007,05,24,16,21,16.60
2007,05,24,16,22,16.60
2007,05,24,16,23,16.60
2007,05,24,16,24,16.70
2007,05,24,16,25,16.90
2007,05,24,16,26,17.10
2007,05,24,16,27,17.30
2007,05,24,16,28,17.30
2007,05,24,16,29,17.40
2007,05,24,16,30,17.50
2007,05,24,16,31,17.50
2007,05,24,16,32,17.50
2007,05,24,16,33,17.40
2007,05,24,16,34,17.30
2007,05,24,16,35,17.40
2007,05,24,16,36,17.50
2007,05,24,16,37,17.60
2007,05,24,16,38,17.70
2007,05,24,16,39,17.70
2007,05,24,16,40,17.70
2007,05,24,16,41,17.80
2007,05,24,16,42,18.00
2007,05,24,16,43,18.10
2007,05,24,16,44,18.10
2007,05,24,16,45,18.00
2007,05,24,16,46,17.90
2007,05,24,16,47,17.80
2007,05,24,16,48,17.70
2007,05,24,16,49,17.70
2007,05,24,16,50,17.70
2007,05,24,16,51,17.60
2007,05,24,16,52,17.60
2007,05,24,16,53,17.50
2007,05,24,16,54,17.40
2007,05,24,16,55,17.40
2007,05,24,16,56,17.30
2007,05,24,16,57,17.30
2007,05,24,16,58,17.40
2007,05,24,16,59,17.40
2007,05,24,17,00,17.50
2007,05,24,17,01,17.60
2007,05,24,17,02,17.70
2007,05,24,17,03,17.70
2007,05,24,17,04,17.70
2007,05,24,17,05,17.80
2007,05,24,17,06,17.80
2007,05,24,17,07,17.80
2007,05,24,17,08,17.90
2007,05,24,17,09,17.90
2007,05,24,17,10,17.90
2007,05,24,17,11,17.90
2007,05,24,17,12,17.90
2007,05,24,17,13,17.90
2007,05,24,17,14,17.90
2007,05,24,17,15,17.90
2007,05,24,17,16,17.80
2007,05,24,17,17,17.80
2007,05,24,17,18,17.80
2007,05,24,17,19,17.80
2007,05,24,17,20,17.90
2007,05,24,17,21,17.90
2007,05,24,17,22,18.00
2007,05,24,17,23,18.00
2007,05,24,17,24,18.00
2007,05,24,17,25,18.00
2007,05,24,17,26,18.00
2007,05,24,17,27,18.00
2007,05,24,17,28,18.10
2007,05,24,17,29,18.20
2007,05,24,17,30,18.20
2007,05,24,17,31,18.20